| |
Missouri Department of Transportation

Social Media Facebook Twitter Flickr Instagram YouTube RSS

Current AWOS Information

 
AWOS Home - General Info for all Airports
Current AWOS for all Airports - Current METAR for all Airports
Glossary - Disclaimer - Other Links


WARSAW--WARSAW MUNICIPAL--KRAW
 
Recent AWOS History
 
08/24/16     02:32 PM CDT      19:32 GMT
Air Temperature 90°F (32°C ) 1st Cloud Layer Clear
Dew Point 72°F (22°C) 2nd Cloud Layer  
Barometric Pressure 30.03 in Hg. 3rd Cloud Layer  
Wind Speed 9 mph (8 knots) Density Altitude 3000 feet
Peak Wind Gusts   Variable Wind Directions  
Wind Direction Quadrant(180°) Variable Visibility  
Visibility 10 statute miles  

Thunderstorm and Precipitation Identification: 
Thunderstorm Remarks: 

Current METAR Record: METAR KRAW 241937Z AUTO 22008KT 10SM CLR 32/22 A3003 RMK AO2

 

 

 

About Us
How Do I...
Contact Us
Missouri Department of Transportation
Central Office
105 W. Capitol Avenue
Jefferson City, MO 65102
1-888-ASK-MODOT (275-6636)
1-866-831-6277 (Motor Carrier Services)
Driver's License Offices
horz_bar
| | |
Missouri State Government
© 2013 Missouri Department of Transportation. All Rights Reserved.   Privacy Policy.
 
 
 
 
RSS FeedYoutubeBlogFlickrTwitter Facebook